6 juillet 2022

Temps Code Temps Temp. Vue Base cloud Vent METAR/SPECI
11:00 am
V
79 °F 6¼ mi+ - 280° 280° 12 kt METAR LFMK 060900Z AUTO 28012KT 230V300 CAVOK 26/15 Q1022 TEMPO 28016G26KT
10:30 am
V
73 °F 6¼ mi+ - 280° 280° 13 kt METAR LFMK 060830Z AUTO 28013KT 250V310 CAVOK 23/14 Q1022 TEMPO 28016G26KT
10:00 am
V
73 °F 6¼ mi+ - 270° 270° 12 kt METAR LFMK 060800Z AUTO 27012KT 240V300 CAVOK 23/14 Q1022 TEMPO 28016G26KT
9:30 am
V
73 °F 6¼ mi+ - 270° 270° 11 kt METAR LFMK 060730Z AUTO 27011KT 250V310 CAVOK 23/14 Q1023 TEMPO 28016G26KT
9:00 am
V
70 °F 6¼ mi+ - 270° 270° 12 kt METAR LFMK 060700Z AUTO 27012KT CAVOK 21/13 Q1022 NOSIG
8:30 am
V
68 °F 6¼ mi+ - 290° 290° 8 kt METAR LFMK 060630Z AUTO 29008KT CAVOK 20/13 Q1022 NOSIG
8:00 am
V
66 °F 6¼ mi+ - 290° 290° 8 kt METAR LFMK 060600Z AUTO 29008KT 250V310 CAVOK 19/13 Q1022 NOSIG
7:30 am
V
68 °F 6¼ mi+ - 280° 280° 7 kt METAR LFMK 060530Z AUTO 28007KT CAVOK 20/13 Q1023 NOSIG
7:00 am
V
70 °F 6¼ mi+ - 260° 260° 8 kt METAR LFMK 060500Z AUTO 26008KT CAVOK 21/13 Q1022 NOSIG
6:30 am
V
68 °F 6¼ mi+ - 270° 270° 6 kt METAR LFMK 060430Z AUTO 27006KT CAVOK 20/12 Q1021 NOSIG
6:00 am
V
70 °F 6¼ mi+ - 260° 260° 8 kt METAR LFMK 060400Z AUTO 26008KT CAVOK 21/13 Q1021 NOSIG
5:30 am
V
70 °F 6¼ mi+ - 260° 260° 7 kt METAR LFMK 060330Z AUTO 26007KT 220V290 CAVOK 21/13 Q1021 NOSIG
5:00 am
V
32 °F 6¼ mi+ - 250° 250° 8 kt METAR LFMK 060300Z AUTO 25008KT 220V290 CAVOK ///// Q1021 NOSIG
4:30 am
V
32 °F 6¼ mi+ - 250° 250° 8 kt METAR LFMK 060230Z AUTO 25008KT 220V280 CAVOK ///// Q1021
4:00 am
V
72 °F 6¼ mi+ - 260° 260° 7 kt METAR LFMK 060200Z AUTO 26007KT 230V290 CAVOK 22/12 Q1020
3:30 am
V
72 °F 6¼ mi+ - 260° 260° 6 kt METAR LFMK 060130Z AUTO 26006KT 230V290 CAVOK 22/12 Q1021
3:00 am
V
73 °F 6¼ mi+ - 260° 260° 7 kt METAR LFMK 060100Z AUTO 26007KT 230V290 CAVOK 23/12 Q1021
2:30 am
V
73 °F 6¼ mi+ - 260° 260° 7 kt METAR LFMK 060030Z AUTO 26007KT 230V290 CAVOK 23/12 Q1021
2:00 am
V
73 °F 6¼ mi+ - 250° 250° 7 kt METAR LFMK 060000Z AUTO 25007KT CAVOK 23/12 Q1021
1:30 am
V
75 °F 6¼ mi+ - 250° 250° 7 kt METAR LFMK 052330Z AUTO 25007KT 220V280 CAVOK 24/13 Q1021
1:00 am
V
77 °F 6¼ mi+ - 250° 250° 7 kt METAR LFMK 052300Z AUTO 25007KT 220V280 CAVOK 25/13 Q1021
12:30 am
V
75 °F 6¼ mi+ - 260° 260° 6 kt METAR LFMK 052230Z AUTO 26006KT CAVOK 24/14 Q1021
12:00 am
V
75 °F 6¼ mi+ - 280° 280° 5 kt METAR LFMK 052200Z AUTO 28005KT CAVOK 24/16 Q1021

5 juillet 2022

Temps Code Temps Temp. Vue Base cloud Vent METAR/SPECI
11:30 pm
V
75 °F 6¼ mi+ - 270° 270° 6 kt METAR LFMK 052130Z AUTO 27006KT 240V300 CAVOK 24/16 Q1021
11:00 pm
V
77 °F 6¼ mi+ - 270° 270° 5 kt METAR LFMK 052100Z AUTO 27005KT CAVOK 25/15 Q1021
10:30 pm
V
77 °F 6¼ mi+ - 270° 270° 8 kt METAR LFMK 052030Z AUTO 27008KT CAVOK 25/15 Q1020
10:00 pm
V
79 °F 6¼ mi+ - 270° 270° 7 kt METAR LFMK 052000Z AUTO 27007KT 230V300 CAVOK 26/15 Q1020
9:30 pm
V
81 °F 6¼ mi+ - 260° 260° 7 kt METAR LFMK 051930Z AUTO 26007KT 230V290 CAVOK 27/15 Q1020
9:00 pm
V
82 °F 6¼ mi+ - 250° 250° 8 kt METAR LFMK 051900Z AUTO 25008KT 230V290 CAVOK 28/15 Q1020
8:30 pm
V
84 °F 6¼ mi+ - 260° 260° 9 kt METAR LFMK 051830Z AUTO 26009KT CAVOK 29/15 Q1020
8:00 pm
V
84 °F 6¼ mi+ - 270° 270° 7 kt METAR LFMK 051800Z AUTO 27007KT 240V300 9999 FEW070 29/15 Q1019 TEMPO FEW070CB BKN100
7:30 pm
V
86 °F 6¼ mi+ - 280° 280° 9 kt METAR LFMK 051730Z AUTO 28009KT 250V310 9999 SCT070 30/15 Q1019 TEMPO FEW070CB BKN100
7:00 pm
V
86 °F 6¼ mi+ - 270° 270° 9 kt METAR LFMK 051700Z AUTO 27009KT 9999 FEW070 30/15 Q1019 TEMPO FEW070CB BKN100
6:30 pm
V
86 °F 6¼ mi+ 6.800 ft 280° 280° 12 kt METAR LFMK 051630Z AUTO 28012KT 240V310 9999 BKN068 30/15 Q1019 TEMPO FEW070CB BKN100
6:00 pm
V
88 °F 6¼ mi+ - 290° 290° 11 kt METAR LFMK 051600Z AUTO 29011KT 250V340 9999 FEW070 31/15 Q1019 NOSIG
5:30 pm
V
88 °F 6¼ mi+ - 280° 280° 12 kt METAR LFMK 051530Z AUTO 28012KT 240V300 CAVOK 31/15 Q1019 NOSIG
5:00 pm
V
88 °F 6¼ mi+ - 310° 310° 11 kt METAR LFMK 051500Z AUTO 31011KT 280V340 CAVOK 31/15 Q1019 NOSIG
4:30 pm
V
88 °F 6¼ mi+ - 280° 280° 11 kt METAR LFMK 051430Z AUTO 28011KT 230V310 CAVOK 31/15 Q1019 NOSIG
4:00 pm
V
88 °F 6¼ mi+ - 290° 290° 14 kt METAR LFMK 051400Z AUTO 29014KT 260V330 CAVOK 31/15 Q1020 NOSIG
3:30 pm
V
86 °F 6¼ mi+ - 280° 280° 13 kt METAR LFMK 051330Z AUTO 28013KT 260V320 CAVOK 30/15 Q1020 NOSIG
3:00 pm
V
88 °F 6¼ mi+ - 300° 300° 11 kt METAR LFMK 051300Z AUTO 30011KT 250V330 CAVOK 31/16 Q1020 NOSIG
2:30 pm
V
86 °F 6¼ mi+ - 280° 280° 14 kt METAR LFMK 051230Z AUTO 28014KT CAVOK 30/16 Q1020 NOSIG
2:00 pm
V
84 °F 6¼ mi+ - 280° 280° 13 kt METAR LFMK 051200Z AUTO 28013KT CAVOK 29/17 Q1020 NOSIG
1:30 pm
V
84 °F 6¼ mi+ - 280° 280° 11 kt METAR LFMK 051130Z AUTO 28011KT 240V310 9999 NCD 29/17 Q1020 NOSIG
1:00 pm
V
82 °F 6¼ mi+ - 290° 290° 12 kt METAR LFMK 051100Z AUTO 29012KT 260V330 CAVOK 28/16 Q1020 NOSIG
12:30 pm
V
81 °F 6¼ mi+ - 280° 280° 13 kt METAR LFMK 051030Z AUTO 28013KT 230V300 CAVOK 27/16 Q1021 NOSIG
12:00 pm
V
81 °F 6¼ mi+ - 290° 290° 12 kt METAR LFMK 051000Z AUTO 29012KT 260V320 CAVOK 27/17 Q1021 NOSIG
11:30 am
V
79 °F 6¼ mi+ - 280° 280° 11 kt METAR LFMK 050930Z AUTO 28011KT 240V310 CAVOK 26/17 Q1021 NOSIG
11:00 am
V
79 °F 6¼ mi+ - 290° 290° 12 kt METAR LFMK 050900Z AUTO 29012KT CAVOK 26/17 Q1021 NOSIG
10:30 am
V
75 °F 6¼ mi+ - 270° 270° 11 kt METAR LFMK 050830Z AUTO 27011KT 230V300 CAVOK 24/17 Q1021 NOSIG
10:00 am
V
75 °F 6¼ mi+ - 280° 280° 11 kt METAR LFMK 050800Z AUTO 28011KT 250V310 CAVOK 24/17 Q1021 NOSIG
9:30 am
V
73 °F 6¼ mi+ - 270° 270° 11 kt METAR LFMK 050730Z AUTO 27011KT CAVOK 23/17 Q1021 NOSIG
9:00 am
V
72 °F 6¼ mi+ - 270° 270° 12 kt METAR LFMK 050700Z AUTO 27012KT CAVOK 22/17 Q1021 NOSIG
8:30 am
V
72 °F 6¼ mi+ - 280° 280° 13 kt METAR LFMK 050630Z AUTO 28013KT CAVOK 22/17 Q1021 NOSIG
8:00 am
V
70 °F 6¼ mi+ - 270° 270° 11 kt METAR LFMK 050600Z AUTO 27011KT CAVOK 21/17 Q1021 NOSIG
7:30 am
V
70 °F 6¼ mi+ - 280° 280° 11 kt METAR LFMK 050530Z AUTO 28011KT CAVOK 21/17 Q1021 NOSIG
7:00 am
V
68 °F 6¼ mi+ - 270° 270° 10 kt METAR LFMK 050500Z AUTO 27010KT 9999 FEW001 20/16 Q1021 NOSIG
6:30 am
V
68 °F 6¼ mi+ 5.600 ft 270° 270° 10 kt METAR LFMK 050430Z AUTO 27010KT 9999 BKN056 20/17 Q1021 NOSIG
6:00 am
V
68 °F 6¼ mi+ 5.600 ft 280° 280° 10 kt METAR LFMK 050400Z AUTO 28010KT 9999 OVC056 20/17 Q1021 NOSIG
5:30 am
V
70 °F 6¼ mi+ 5.600 ft 280° 280° 10 kt METAR LFMK 050330Z AUTO 28010KT 9999 OVC056 21/16 Q1020 NOSIG
5:00 am
V
70 °F 6¼ mi+ 5.600 ft 280° 280° 10 kt METAR LFMK 050300Z AUTO 28010KT 9999 OVC056 21/17 Q1020 NOSIG
4:30 am
V
70 °F 6¼ mi+ 5.400 ft 280° 280° 10 kt METAR LFMK 050230Z AUTO 28010KT 9999 OVC054 21/17 Q1021
4:00 am
V
70 °F 6¼ mi+ 5.200 ft 270° 270° 10 kt METAR LFMK 050200Z AUTO 27010KT 9999 OVC052 21/17 Q1021
3:30 am
V
70 °F 6¼ mi+ 5.800 ft 270° 270° 9 kt METAR LFMK 050130Z AUTO 27009KT 9999 OVC058 21/17 Q1021
3:00 am
V
70 °F 6¼ mi+ 5.800 ft 280° 280° 11 kt METAR LFMK 050100Z AUTO 28011KT 9999 OVC058 21/17 Q1021
2:30 am
V
70 °F 6¼ mi+ - 270° 270° 11 kt METAR LFMK 050030Z AUTO 27011KT 9999 SCT058 21/17 Q1021
2:00 am
V
70 °F 6¼ mi+ 5.800 ft 280° 280° 11 kt METAR LFMK 050000Z AUTO 28011KT 9999 FEW048 BKN058 21/17 Q1021
1:30 am
V
70 °F 6¼ mi+ - 280° 280° 11 kt METAR LFMK 042330Z AUTO 28011KT CAVOK 21/17 Q1020
1:00 am
V
70 °F 6¼ mi+ - 270° 270° 11 kt METAR LFMK 042300Z AUTO 27011KT CAVOK 21/17 Q1020
12:30 am
V
72 °F 6¼ mi+ - 280° 280° 11 kt METAR LFMK 042230Z AUTO 28011KT CAVOK 22/17 Q1020
12:00 am
V
72 °F 6¼ mi+ - 270° 270° 9 kt METAR LFMK 042200Z AUTO 27009KT CAVOK 22/17 Q1020

4 juillet 2022

Temps Code Temps Temp. Vue Base cloud Vent METAR/SPECI
11:30 pm
V
72 °F 6¼ mi+ - 270° 270° 10 kt METAR LFMK 042130Z AUTO 27010KT CAVOK 22/17 Q1020
11:00 pm
V
72 °F 6¼ mi+ - 270° 270° 10 kt METAR LFMK 042100Z AUTO 27010KT CAVOK 22/17 Q1020
10:30 pm
V
73 °F 6¼ mi+ - 270° 270° 9 kt METAR LFMK 042030Z AUTO 27009KT 230V290 CAVOK 23/17 Q1020
10:00 pm
V
73 °F 6¼ mi+ - 260° 260° 10 kt METAR LFMK 042000Z AUTO 26010KT 230V290 CAVOK 23/17 Q1019
9:30 pm
V
75 °F 6¼ mi+ - 260° 260° 9 kt METAR LFMK 041930Z AUTO 26009KT 230V300 9999 FEW056 SCT110 24/17 Q1019
9:00 pm
V
79 °F 6¼ mi+ - 280° 280° 10 kt METAR LFMK 041900Z AUTO 28010KT 250V310 CAVOK 26/17 Q1018
8:30 pm
V
79 °F 6¼ mi+ - 280° 280° 12 kt METAR LFMK 041830Z AUTO 28012KT CAVOK 26/16 Q1018
8:00 pm
V
81 °F 6¼ mi+ - 290° 290° 12 kt METAR LFMK 041800Z AUTO 29012KT 9999 FEW050 27/17 Q1018 NOSIG
7:30 pm
V
82 °F 6¼ mi+ - 280° 280° 12 kt METAR LFMK 041730Z AUTO 28012KT 250V310 9999 SCT048 28/16 Q1018 NOSIG
7:00 pm
V
82 °F 6¼ mi+ - 280° 280° 12 kt METAR LFMK 041700Z AUTO 28012KT 240V310 9999 FEW049 28/17 Q1017 NOSIG
6:30 pm
V
84 °F 6¼ mi+ - 290° 290° 13 kt METAR LFMK 041630Z AUTO 29013KT 240V320 9999 FEW049 29/17 Q1017 NOSIG
6:00 pm
V
84 °F 6¼ mi+ - 290° 290° 13 kt METAR LFMK 041600Z AUTO 29013KT 9999 FEW050 29/17 Q1017 NOSIG
5:30 pm
V
84 °F 6¼ mi+ - 280° 280° 13 kt METAR LFMK 041530Z AUTO 28013KT 240V310 CAVOK 29/17 Q1017 NOSIG
5:00 pm
V
84 °F 6¼ mi+ - 280° 280° 13 kt METAR LFMK 041500Z AUTO 28013KT CAVOK 29/17 Q1018 NOSIG
4:30 pm
V
82 °F 6¼ mi+ - 290° 290° 14 kt METAR LFMK 041430Z AUTO 29014KT 240V320 CAVOK 28/17 Q1018 NOSIG
4:00 pm
V
84 °F 6¼ mi+ - 290° 290° 13 kt METAR LFMK 041400Z AUTO 29013KT 240V320 CAVOK 29/17 Q1018 NOSIG
3:30 pm
V
82 °F 6¼ mi+ - 280° 280° 14 kt METAR LFMK 041330Z AUTO 28014KT 230V320 CAVOK 28/17 Q1018 NOSIG
3:00 pm
V
82 °F 6¼ mi+ - 290° 290° 14 kt METAR LFMK 041300Z AUTO 29014KT 260V320 CAVOK 28/18 Q1018 TEMPO 28018G28KT
2:30 pm
V
81 °F 6¼ mi+ - 280° 280° 14 kt METAR LFMK 041230Z AUTO 28014KT 240V310 CAVOK 27/17 Q1018 TEMPO 28018G28KT
2:00 pm
V
81 °F 6¼ mi+ - 280° 280° 15 kt METAR LFMK 041200Z AUTO 28015KT 250V310 CAVOK 27/17 Q1019 TEMPO 28018G28KT
1:30 pm
V
81 °F 6¼ mi+ - 280° 280° 13 kt METAR LFMK 041130Z AUTO 28013KT 210V310 CAVOK 27/17 Q1019 TEMPO 28018G28KT
1:00 pm
V
79 °F 6¼ mi+ - 280° 280° 14 kt METAR LFMK 041100Z AUTO 28014KT 250V310 CAVOK 26/18 Q1019 TEMPO 28018G28KT
12:30 pm
V
77 °F 6¼ mi+ - 270° 270° 12 kt METAR LFMK 041030Z AUTO 27012KT 240V300 CAVOK 25/17 Q1019 TEMPO 28018G28KT
12:00 pm
V
77 °F 6¼ mi+ - 270° 270° 11 kt METAR LFMK 041000Z AUTO 27011KT 230V300 CAVOK 25/17 Q1019 TEMPO 28018G28KT
11:30 am
V
75 °F 6¼ mi+ - 270° 270° 13 kt METAR LFMK 040930Z AUTO 27013KT 230V300 CAVOK 24/17 Q1019 TEMPO 28018G28KT
11:00 am
V
72 °F 6¼ mi+ - 270° 270° 12 kt METAR LFMK 040900Z AUTO 27012KT 230V290 CAVOK 22/16 Q1019 TEMPO 28018G28KT
Données plus anciennes

Télécharge notre application

Un accès facile à toute la météo aéronautique sur ton téléphone portable et ta tablette.
Avec de nombreuses fonctionnalités non disponibles sur le site Web, comme la prise en charge hors ligne et une liste personnelle d'aéroports.

Nous et des tiers suivons ton comportement sur Internet sur notre site Web à l'aide de cookies. Si tu continues, nous supposons que tu acceptes notre politique en matière de cookies. Apprendre plus